This is the latest recevied weather packets stored in our database for station/object N5PLO-10. If no packets are shown the sender has not sent any weather packets the latest 10 day(s).
| Time | Temp. | Humidity | Pressure | Rain* | Wind** | Luminosity | Snow |
|---|---|---|---|---|---|---|---|
| 1777585301 | 23.89° C | 85% | - | 0 mm | - | - | - |
| 1777584996 | 23.89° C | 84% | - | 0 mm | - | - | - |
| 1777584693 | 23.33° C | 85% | - | 0 mm | - | - | - |
| 1777584391 | 23.89° C | 84% | 1015.9 hPa | 0 mm | - | 183 W/m² | - |
| 1777584087 | 23.89° C | 83% | 1015.9 hPa | 0 mm | - | 122 W/m² | - |
| 1777583787 | 23.89° C | 83% | 1015.9 hPa | 0 mm | - | 126 W/m² | - |
| 1777583481 | 23.89° C | 83% | 1015.9 hPa | 0 mm | - | 111 W/m² | - |
| 1777583175 | 23.89° C | 83% | 1015.9 hPa | 0 mm | - | 108 W/m² | - |
| 1777582871 | 24.44° C | 82% | 1015.9 hPa | 0 mm | - | 98 W/m² | - |
| 1777582569 | 24.44° C | 82% | 1015.9 hPa | 0 mm | - | 121 W/m² | - |
| 1777582264 | 25° C | 82% | 1015.9 hPa | 0 mm | - | 126 W/m² | - |
| 1777581961 | 24.44° C | 83% | 1015.9 hPa | 0 mm | - | 115 W/m² | - |
| 1777581657 | 25° C | 82% | 1015.9 hPa | 0 mm | - | 139 W/m² | - |
| 1777581350 | 25° C | 81% | 1015.9 hPa | 0 mm | - | 154 W/m² | - |
| 1777581046 | 25.56° C | 81% | 1015.9 hPa | 0 mm | - | 110 W/m² | - |
| 1777580745 | 26.11° C | 80% | 1016.1 hPa | 0 mm | - | 106 W/m² | - |
| 1777580442 | 26.11° C | 79% | 1016 hPa | 0 mm | - | 136 W/m² | - |
| 1777580137 | 26.67° C | 79% | 1016 hPa | 0 mm | - | 202 W/m² | - |
| 1777579834 | 26.67° C | 79% | 1015.8 hPa | 0 mm | - | 273 W/m² | - |
| 1777579533 | 27.22° C | 79% | 1015.7 hPa | 0 mm | - | 255 W/m² | - |
| 1777579233 | 27.22° C | 78% | 1015.8 hPa | 0 mm | - | 297 W/m² | - |
| 1777578928 | 27.22° C | 79% | 1015.7 hPa | 0 mm | - | 279 W/m² | - |
| 1777578624 | 26.67° C | 80% | 1015.5 hPa | 0 mm | - | 339 W/m² | - |
| 1777578323 | 26.67° C | 79% | 1015.7 hPa | 0 mm | - | 403 W/m² | - |
| 1777578020 | 26.11° C | 81% | 1015.6 hPa | 0 mm | - | 394 W/m² | - |
* Rain latest hour (hover to see other rain measurements)
** Current wind speed in m/s (hover to see current wind gust speed)